Terminal Aerodrome Forecast
Issued by NWS

Home | Current Version | Previous Version | Text Only | Print | Product List | Glossary On
Versions: 1 2 3 4 5 6 7 8 9 10 11 12 13 14 15 16
000
FTPQ31 PGUM 250531
TAFGUM
TAF

TAF
PKWA 250531Z 2506/2606 12015KT 6SM -RA SCT018 BKN040 OVC120
      TEMPO 2506/2510 3SM TSRA SCT011CB BKN020 OVC050
     FM251000 10012KT P6SM VCSH SCT016 BKN050 OVC110=

USA.gov is the U.S. government's official web portal to all federal, state and local government web resources and services.